Regional Weather Roundup
Issued by NWS Jackson, KY

Home | Current Version | Previous Version | Text Only | Print | Product List | Glossary Off
Versions: 1 2 3 4 5 6 7 8 9 10 11 12 13 14 15 16 17 18 19 20 21 22 23 24 25 26 27

000
ASUS43 KJKL 271810
RWRJKL

EAST KENTUCKY HOURLY WEATHER ROUNDUP
NATIONAL WEATHER SERVICE JACKSON KY
200 PM EDT WED JUL 27 2016

NOTE: "FAIR" INDICATES FEW OR NO CLOUDS BELOW 12,000 FEET WITH
NO SIGNIFICANT WEATHER AND/OR OBSTRUCTIONS TO VISIBILITY.

* THESE REPORTS ARE NOT UNDER NWS QUALITY CONTROL AND MAY NOT
  REPORT WEATHER SUCH AS PRECIPITATION AND FOG.

KYZ079-080-083-085-087-088-110-112-115-119-120-271900
...EASTERN KENTUCKY...

CITY           SKY/WX    TMP DP  RH WIND       PRES   REMARKS
JACKSON        PTSUNNY   89  74  60 VRB5      30.03F HX  98
6HR MIN TEMP:  74; 6HR MAX TEMP:  90;

LONDON         MOSUNNY   90  69  50 VRB7      30.02F HX  94
6HR MIN TEMP:  76; 6HR MAX TEMP:  91; 6HR PCP: TRACE;

SOMERSET*      MOSUNNY   86  70  58 CALM      30.03F HX  90
MONTICELLO*    SUNNY    N/A N/A N/A VRB6      30.03F
WILLIAMSBURG*  PTCLDY    90  75  62 NW5       30.03F HX 100
MIDDLESBORO*   MOSUNNY   92  73  53 SW7       30.02F HX 101
6HR MIN TEMP:  74; 6HR MAX TEMP:  93;

HARLAN APT*      N/A     91  68  46 CALM      30.04F HX  95
PIKE CO APT*   CLOUDY    83  77  83 CALM      30.03F THUNDER HX  91
MOREHEAD APT*  PTCLDY    86  73  66 CALM      30.03F HX  93
ASHLAND*       MOSUNNY   86  77  74 NW3       29.97F HX  97
$$

KYZ035-036-041-042-044-050-067-078-099-271900
...CENTRAL KENTUCKY...

CITY           SKY/WX    TMP DP  RH WIND       PRES   REMARKS
MT STERLING*   MOSUNNY   88  75  66 CALM      30.03F HX  97
FLEMING/MASON* MOSUNNY   86  73  64 CALM      30.01F HX  93
DANVILLE*      MOSUNNY   88  72  58 CALM      30.02F HX  94
LEXINGTON      MOSUNNY   89  71  55 SW9       30.01F HX  95
6HR MIN TEMP:  76; 6HR MAX TEMP:  90;

FRANKFORT      PTSUNNY   87  72  60 CALM      29.99F HX  93
6HR MIN TEMP:  74; 6HR MAX TEMP:  89;

LOUISVILLE     CLOUDY    90  74  59 W6        29.98F HX  99
6HR MIN TEMP:  79; 6HR MAX TEMP:  90;

LEBANON*       MOCLDY    79  72  78 NW14G28   30.03R
GLASGOW*       SUNNY     90  73  58 W7        30.00F HX  98
BOWLING GREEN  CLOUDY    89  74  60 SE3       30.00F HX  98
6HR MIN TEMP:  78; 6HR MAX TEMP:  91;

$$

KYZ091>093-OHZ055-061-077-WVZ005-015-034-035-042-271900
...SOUTHERN OHIO/WEST VIRGINIA...

CITY           SKY/WX    TMP DP  RH WIND       PRES   REMARKS
COVINGTON      PTSUNNY   86  73  65 VRB6      30.01S HX  93
COLUMBUS       MOSUNNY   87  66  49 VRB3      29.99F
DAYTON         MOSUNNY   86  67  52 W7        30.02F
WILMINGTON     PTSUNNY   86  72  62 CALM      30.00F HX  92
HUNTINGTON       N/A     87  73  62 W3        29.99F HX  94
CHARLESTON       N/A     87  73  62 VRB3      30.00F HX  94
PINEVILLE*     RAIN      83  73  71 MISG      30.10S
BECKLEY        PTSUNNY   81  71  71 W5        30.09F THUNDER
BLUEFIELD        N/A     84  67  56 CALM      30.12F
LOGAN CO APT*  MOCLDY    84  75  74 N7        30.03S HX  92
$$

VAZ002-007-008-TNZ017-027-036-066-071-271900
...SOUTHWEST VIRGINIA/EAST TENNESSEE...

CITY           SKY/WX    TMP DP  RH WIND       PRES   REMARKS
WISE*          PTSUNNY   82  63  51 E6        30.13F THUNDER
JONESVILLE*      N/A     91  72  52 W5        30.06F HX  98
ABINGDON*      PTSUNNY   89  70  54 CALM      30.08F HX  94
BRISTOL        MOSUNNY   92  71  50 SW5       30.04F HX  98
MORRISTOWN*    PTCLDY    91  70  49 VRB7G14   30.02F HX  97
SEVIERVILLE*     N/A     97  68  38 W8        30.01F HX 101
KNOXVILLE      MOSUNNY   93  69  45 NW9       30.01F HX  98
OAK RIDGE      SUNNY     95  69  42 VRB7      30.03F HX 100
CROSSVILLE     CLOUDY    85  69  58 CALM      30.08F
NASHVILLE      PTSUNNY   91  72  52 SW7       30.00F HX  98
$$

...KEY TO REMARKS...
VSB - VISIBILITY IN MILES
WCI - WIND CHILL INDEX
HX  - HEAT INDEX

$$




USA.gov is the U.S. government's official web portal to all federal, state and local government web resources and services.